Weather History for Bangkok (Don Mueang), Thailand

Change the Weather History Date:

Saturday, March 2, 2013

  Actual Average Record
Temperature  
Mean Temperature 88 °F -  
Max Temperature 95 °F 93 °F 98 °F (2004)
Min Temperature 80 °F 76 °F 75 °F (2004)
Cooling Degree Days 22    
Growing Degree Days 38 (Base 50)    
Moisture  
Dew Point 76 °F    
Average Humidity 70    
Maximum Humidity 89    
Minimum Humidity 51    
Precipitation  
Precipitation 0.00 in 0.04 in - ()
Sea Level Pressure  
Sea Level Pressure 29.84 in    
Wind  
Wind Speed 6 mph ()    
Max Wind Speed 14 mph    
Max Gust Speed -    
Visibility 6.1 miles    
Events      
Averages and records for this station are not official NWS values.
T = Trace of Precipitation, MM = Missing Value Source: Averaged Metar Reports

Daily Weather History Graph

Daily Weather History Graph

Search for Another Location

Airport:

Trip Planner

Search our weather history database for the weather conditions in past years. The results will help you decide how hot, cold, wet, or windy it might be!

Date:

Astronomy

Mar. 02, 2013 Rise Set
Actual Time 6:33 AM ICT 6:26 PM ICT
Civil Twilight 6:12 AM ICT 6:47 PM ICT
Nautical Twilight 5:47 AM ICT 7:12 PM ICT
Astronomical Twilight 5:22 AM ICT 7:37 PM ICT
Moon 10:32 PM ICT (3/2) 9:32 AM ICT (3/2)
Length of Visible Light 12h 35m
Length of Day
11h 52m
Waning Gibbous, 79% of the Moon is Illuminated
Mar 2
Waning Gibbous
Mar 5
Last Quarter
Mar 12
New
Mar 20
First Quarter
Mar 27
Full

Hourly Weather History & Observations

Time (ICT) Temp. Heat Index Dew Point Humidity Pressure Visibility Wind Dir Wind Speed Gust Speed Precip Events Conditions
12:00 AM 84.2 °F 94.1 °F 77.0 °F 79% 29.83 in 6.2 mi SSW 5.8 mph - N/A   Scattered Clouds
12:30 AM 84.2 °F 94.1 °F 77.0 °F 79% 29.83 in 6.2 mi SSW 5.8 mph - N/A   Scattered Clouds
1:00 AM 84 °F - 77 °F 75% 29.84 in 6 mi SSW 10.4 mph - -   Scattered Clouds
1:00 AM 84.2 °F 94.1 °F 77.0 °F 79% 29.83 in 6.2 mi SSW 10.4 mph - N/A   Scattered Clouds
1:30 AM 84.2 °F 94.1 °F 77.0 °F 79% 29.83 in 6.2 mi SSW 4.6 mph - N/A   Scattered Clouds
2:00 AM 84.2 °F 94.1 °F 77.0 °F 79% 29.83 in 6.2 mi SSW 5.8 mph - N/A   Scattered Clouds
2:30 AM 82.4 °F 90.9 °F 77.0 °F 84% 29.83 in 6.2 mi SSW 4.6 mph - N/A   Scattered Clouds
3:00 AM 82.4 °F 90.9 °F 77.0 °F 84% 29.80 in 6.2 mi SSW 5.8 mph - N/A   Scattered Clouds
3:30 AM 82.4 °F 90.9 °F 77.0 °F 84% 29.80 in 6.2 mi SSW 3.5 mph - N/A   Scattered Clouds
4:00 AM 82.4 °F 90.9 °F 77.0 °F 84% 29.80 in 6.2 mi SSW 4.6 mph - N/A   Scattered Clouds
4:30 AM 82.4 °F 90.9 °F 77.0 °F 84% 29.80 in 6.2 mi SSW 3.5 mph - N/A   Scattered Clouds
5:00 AM 82.4 °F 90.9 °F 77.0 °F 84% 29.80 in 6.2 mi South 3.5 mph - N/A   Scattered Clouds
5:30 AM 82.4 °F 90.9 °F 77.0 °F 84% 29.80 in 6.2 mi South 3.5 mph - N/A   Scattered Clouds
6:00 AM 82.4 °F 90.9 °F 77.0 °F 84% 29.83 in 6.2 mi South 3.5 mph - N/A   Scattered Clouds
6:30 AM 82.4 °F 90.9 °F 77.0 °F 84% 29.83 in 6.2 mi ESE 3.5 mph - N/A   Scattered Clouds
7:00 AM 81 °F - 77 °F 85% 29.86 in 6 mi ESE 4.6 mph - -   Mist
7:00 AM 80.6 °F 87.1 °F 77.0 °F 89% 29.86 in 5.6 mi ESE 4.6 mph - N/A   Mostly Cloudy
7:30 AM 82.4 °F 90.9 °F 77.0 °F 84% 29.86 in 5.6 mi ESE 3.5 mph - N/A   Mostly Cloudy
8:00 AM 82.4 °F 92.4 °F 78.8 °F 89% 29.86 in 5.6 mi ESE 3.5 mph - N/A   Scattered Clouds
8:30 AM 84.2 °F 94.1 °F 77.0 °F 79% 29.89 in 5.6 mi East 5.8 mph - N/A   Scattered Clouds
9:00 AM 84.2 °F 94.1 °F 77.0 °F 79% 29.89 in 5.6 mi SE 6.9 mph - N/A   Mostly Cloudy
9:30 AM 86.0 °F 96.9 °F 77.0 °F 74% 29.92 in 5.6 mi South 5.8 mph - N/A   Mostly Cloudy
10:00 AM 87.8 °F 99.7 °F 77.0 °F 70% 29.92 in 5.6 mi South 3.5 mph - N/A   Mostly Cloudy
10:30 AM 87.8 °F 99.7 °F 77.0 °F 70% 29.92 in 5.6 mi SW 6.9 mph - N/A   Mostly Cloudy
11:00 AM 89.6 °F 102.2 °F 77.0 °F 66% 29.92 in 5.6 mi South 4.6 mph - N/A   Mostly Cloudy
11:30 AM 89.6 °F 102.2 °F 77.0 °F 66% 29.89 in 6.2 mi SW 5.8 mph - N/A   Mostly Cloudy
12:00 PM 89.6 °F 99.8 °F 75.2 °F 62% 29.89 in 6.2 mi SSW 6.9 mph - N/A   Mostly Cloudy
12:30 PM 91.4 °F 102.5 °F 75.2 °F 59% 29.89 in 6.2 mi South 9.2 mph - N/A   Mostly Cloudy
1:00 PM 92 °F - 76 °F 51% 29.88 in 6 mi SSW 13.8 mph - -   Partly Cloudy
1:00 PM 91.4 °F 102.5 °F 75.2 °F 59% 29.86 in 6.2 mi SSW 13.8 mph - N/A   Mostly Cloudy
1:30 PM 93.2 °F 105.0 °F 75.2 °F 56% 29.86 in 6.2 mi SSW 6.9 mph - N/A   Mostly Cloudy
2:00 PM 93.2 °F 105.0 °F 75.2 °F 56% 29.83 in 6.2 mi South 8.1 mph - N/A   Mostly Cloudy
2:30 PM 93.2 °F 105.0 °F 75.2 °F 56% 29.83 in 6.2 mi SE 5.8 mph - N/A   Mostly Cloudy
3:00 PM 95.0 °F 107.4 °F 75.2 °F 53% 29.80 in 6.2 mi SSW 8.1 mph - N/A   Mostly Cloudy
3:30 PM 95.0 °F 107.4 °F 75.2 °F 53% 29.80 in 6.2 mi West 4.6 mph - N/A   Mostly Cloudy
4:00 PM 95.0 °F 107.4 °F 75.2 °F 53% 29.80 in 6.2 mi SSW 3.5 mph - N/A   Mostly Cloudy
4:30 PM 95.0 °F 107.4 °F 75.2 °F 53% 29.80 in 6.2 mi South 6.9 mph - N/A   Mostly Cloudy
5:00 PM 93.2 °F 105.0 °F 75.2 °F 56% 29.80 in 6.2 mi WSW 8.1 mph - N/A   Mostly Cloudy
5:30 PM 93.2 °F 105.0 °F 75.2 °F 56% 29.80 in 6.2 mi SSW 11.5 mph - N/A   Mostly Cloudy
6:00 PM 91.4 °F 102.5 °F 75.2 °F 59% 29.80 in 6.2 mi SSW 6.9 mph - N/A   Mostly Cloudy
6:30 PM 89.6 °F 99.8 °F 75.2 °F 62% 29.80 in 6.2 mi SW 5.8 mph - N/A   Mostly Cloudy
7:00 PM 89 °F - 75 °F 56% 29.82 in 6 mi SW 9.2 mph - -   Scattered Clouds
7:00 PM 89.6 °F 99.8 °F 75.2 °F 62% 29.80 in 6.2 mi SW 9.2 mph - N/A   Mostly Cloudy
7:30 PM 87.8 °F 97.6 °F 75.2 °F 66% 29.80 in 6.2 mi WSW 9.2 mph - N/A   Scattered Clouds
8:00 PM 87.8 °F 97.6 °F 75.2 °F 66% 29.83 in 6.2 mi SW 11.5 mph - N/A   Scattered Clouds
8:30 PM 87.8 °F 99.7 °F 77.0 °F 70% 29.83 in 6.2 mi SSW 8.1 mph - N/A   Scattered Clouds
9:00 PM 87.8 °F 95.6 °F 73.4 °F 62% 29.86 in 6.2 mi SSW 9.2 mph - N/A   Scattered Clouds
9:30 PM 87.8 °F 95.6 °F 73.4 °F 62% 29.86 in 6.2 mi SSW 9.2 mph - N/A   Scattered Clouds
10:00 PM 86.0 °F 96.9 °F 77.0 °F 74% 29.89 in 6.2 mi SSE 3.5 mph - N/A   Scattered Clouds
10:30 PM 86.0 °F 95.1 °F 75.2 °F 70% 29.89 in 6.2 mi SW 4.6 mph - N/A   Scattered Clouds
11:00 PM 86.0 °F 96.9 °F 77.0 °F 74% 29.89 in 6.2 mi SSW 4.6 mph - N/A   Scattered Clouds
11:30 PM 86.0 °F 96.9 °F 77.0 °F 74% 29.89 in 6.2 mi South 8.1 mph - N/A   Scattered Clouds